Hourly Weather Kajhajdi

Today, 8 March, Monday

Time Temperature Precipitation Wind Pressure Humidity
00:00 +28°C° 0 mm 5 mps 757 mmHg 19%
01:00 +27°C° 0 mm 5 mps 757 mmHg 19%
02:00 +26°C° 0 mm 4 mps 756 mmHg 20%
03:00 +25°C° 0 mm 4 mps 756 mmHg 21%
04:00 +25°C° 0 mm 4 mps 756 mmHg 22%
05:00 +23°C° 0 mm 5 mps 756 mmHg 23%
06:00 +25°C° 0 mm 5 mps 757 mmHg 22%
07:00 +26°C° 0 mm 6 mps 757 mmHg 20%
08:00 +27°C° 0 mm 6 mps 758 mmHg 18%
09:00 +30°C° 0 mm 6 mps 758 mmHg 16%
10:00 +34°C° 0 mm 5 mps 757 mmHg 13%
11:00 +37°C° 0 mm 5 mps 757 mmHg 11%
12:00 +39°C° 0 mm 5 mps 756 mmHg 10%
13:00 +40°C° 0 mm 5 mps 756 mmHg 9%
14:00 +41°C° 0 mm 4 mps 755 mmHg 9%
15:00 +40°C° 0 mm 5 mps 754 mmHg 9%
16:00 +40°C° 0 mm 6 mps 754 mmHg 9%
17:00 +39°C° 0 mm 6 mps 754 mmHg 9%
18:00 +36°C° 0 mm 6 mps 755 mmHg 11%
19:00 +34°C° 0 mm 6 mps 755 mmHg 12%
20:00 +30°C° 0 mm 5 mps 756 mmHg 14%
21:00 +29°C° 0 mm 5 mps 756 mmHg 15%
22:00 +28°C° 0 mm 5 mps 756 mmHg 16%
23:00 +27°C° 0 mm 5 mps 757 mmHg 17%

Tomorrow, 9 March, Tuesday

Time Temperature Precipitation Wind Pressure Humidity
00:00 +27°C° 0 mm 5 mps 756 mmHg 19%
01:00 +26°C° 0 mm 6 mps 756 mmHg 21%
02:00 +24°C° 0 mm 6 mps 756 mmHg 22%
03:00 +24°C° 0 mm 6 mps 756 mmHg 23%
04:00 +23°C° 0 mm 6 mps 756 mmHg 25%
05:00 +22°C° 0 mm 6 mps 756 mmHg 26%
06:00 +23°C° 0 mm 7 mps 756 mmHg 25%
07:00 +24°C° 0 mm 7 mps 757 mmHg 23%
08:00 +27°C° 0 mm 8 mps 758 mmHg 22%
09:00 +29°C° 0 mm 8 mps 757 mmHg 19%
10:00 +32°C° 0 mm 7 mps 757 mmHg 16%
11:00 +35°C° 0 mm 6 mps 757 mmHg 14%
12:00 +36°C° 0 mm 6 mps 756 mmHg 12%
13:00 +37°C° 0 mm 5 mps 756 mmHg 10%
14:00 +39°C° 0 mm 5 mps 755 mmHg 9%
15:00 +39°C° 0 mm 5 mps 755 mmHg 9%
16:00 +37°C° 0 mm 5 mps 754 mmHg 9%
17:00 +37°C° 0 mm 5 mps 754 mmHg 9%
18:00 +35°C° 0 mm 5 mps 755 mmHg 11%
19:00 +33°C° 0 mm 5 mps 755 mmHg 13%
20:00 +29°C° 0 mm 5 mps 756 mmHg 15%
21:00 +29°C° 0 mm 5 mps 756 mmHg 16%
22:00 +28°C° 0 mm 5 mps 756 mmHg 18%
23:00 +27°C° 0 mm 6 mps 757 mmHg 19%

Day after tomorrow, 10 March, Wednesday

Time Temperature Precipitation Wind Pressure Humidity
00:00 +26°C° 0 mm 6 mps 756 mmHg 20%
01:00 +26°C° 0 mm 6 mps 756 mmHg 22%
02:00 +24°C° 0 mm 6 mps 756 mmHg 24%
03:00 +23°C° 0 mm 6 mps 756 mmHg 25%
04:00 +23°C° 0 mm 6 mps 755 mmHg 26%
05:00 +22°C° 0 mm 6 mps 755 mmHg 28%
06:00 +23°C° 0 mm 6 mps 756 mmHg 27%
07:00 +24°C° 0 mm 7 mps 757 mmHg 26%
08:00 +26°C° 0 mm 8 mps 757 mmHg 25%
09:00 +28°C° 0 mm 7 mps 757 mmHg 21%
10:00 +32°C° 0 mm 7 mps 757 mmHg 18%
11:00 +34°C° 0 mm 6 mps 757 mmHg 14%
12:00 +35°C° 0 mm 5 mps 757 mmHg 13%
13:00 +36°C° 0 mm 5 mps 756 mmHg 11%
14:00 +37°C° 0 mm 4 mps 755 mmHg 9%
15:00 +37°C° 0 mm 4 mps 755 mmHg 9%
16:00 +37°C° 0 mm 4 mps 755 mmHg 9%
17:00 +37°C° 0 mm 4 mps 754 mmHg 9%
18:00 +35°C° 0 mm 5 mps 755 mmHg 10%
19:00 +32°C° 0 mm 5 mps 755 mmHg 11%
20:00 +29°C° 0 mm 5 mps 756 mmHg 12%
21:00 +28°C° 0 mm 5 mps 756 mmHg 11%
22:00 +27°C° 0 mm 5 mps 756 mmHg 10%
23:00 +26°C° 0 mm 5 mps 757 mmHg 9%

11 March, Thursday

Time Temperature Precipitation Wind Pressure Humidity
00:00 +26°C° 0 mm 5 mps 756 mmHg 9%
01:00 +25°C° 0 mm 5 mps 756 mmHg 9%
02:00 +23°C° 0 mm 5 mps 756 mmHg 9%
03:00 +23°C° 0 mm 5 mps 756 mmHg 10%
04:00 +23°C° 0 mm 5 mps 756 mmHg 10%
05:00 +22°C° 0 mm 5 mps 756 mmHg 11%
06:00 +25°C° 0 mm 5 mps 756 mmHg 11%
07:00 +26°C° 0 mm 6 mps 757 mmHg 11%
08:00 +27°C° 0 mm 7 mps 757 mmHg 12%
09:00 +30°C° 0 mm 7 mps 757 mmHg 10%
10:00 +33°C° 0 mm 7 mps 757 mmHg 9%
11:00 +36°C° 0 mm 7 mps 757 mmHg 8%
12:00 +38°C° 0 mm 6 mps 757 mmHg 7%
13:00 +39°C° 0 mm 5 mps 756 mmHg 7%
14:00 +40°C° 0 mm 5 mps 755 mmHg 6%
15:00 +40°C° 0 mm 4 mps 754 mmHg 6%
16:00 +40°C° 0 mm 4 mps 754 mmHg 6%
17:00 +38°C° 0 mm 4 mps 754 mmHg 6%
18:00 +36°C° 0 mm 3 mps 755 mmHg 7%
19:00 +34°C° 0 mm 3 mps 755 mmHg 8%
20:00 +30°C° 0 mm 3 mps 756 mmHg 9%
21:00 +30°C° 0 mm 4 mps 756 mmHg 9%
22:00 +29°C° 0 mm 4 mps 756 mmHg 10%
23:00 +28°C° 0 mm 5 mps 757 mmHg 11%

12 March, Friday

Time Temperature Precipitation Wind Pressure Humidity
00:00 +28°C° 0 mm 5 mps 756 mmHg 13%
01:00 +27°C° 0 mm 5 mps 756 mmHg 15%
02:00 +26°C° 0 mm 6 mps 756 mmHg 18%
03:00 +26°C° 0 mm 6 mps 756 mmHg 19%
04:00 +24°C° 0 mm 6 mps 756 mmHg 20%
05:00 +24°C° 0 mm 6 mps 756 mmHg 21%
06:00 +26°C° 0 mm 7 mps 757 mmHg 19%
07:00 +27°C° 0 mm 9 mps 757 mmHg 18%
08:00 +28°C° 0 mm 10 mps 758 mmHg 16%
09:00 +31°C° 0 mm 9 mps 758 mmHg 14%
10:00 +33°C° 0 mm 9 mps 758 mmHg 12%
11:00 +35°C° 0 mm 9 mps 758 mmHg 10%
12:00 +37°C° 0 mm 8 mps 757 mmHg 9%
13:00 +38°C° 0 mm 7 mps 756 mmHg 9%
14:00 +39°C° 0 mm 6 mps 755 mmHg 8%
15:00 +39°C° 0 mm 5 mps 755 mmHg 8%
16:00 +37°C° 0 mm 5 mps 754 mmHg 8%
17:00 +37°C° 0 mm 5 mps 754 mmHg 8%
18:00 +35°C° 0 mm 5 mps 755 mmHg 10%
19:00 +33°C° 0 mm 5 mps 755 mmHg 12%
20:00 +29°C° 0 mm 5 mps 756 mmHg 13%
21:00 +29°C° 0 mm 5 mps 756 mmHg 14%
22:00 +28°C° 0 mm 6 mps 756 mmHg 14%
23:00 +28°C° 0 mm 6 mps 757 mmHg 15%

13 March, Saturday

Time Temperature Precipitation Wind Pressure Humidity
00:00 +27°C° 0 mm 6 mps 756 mmHg 16%
01:00 +26°C° 0 mm 6 mps 756 mmHg 17%
02:00 +24°C° 0 mm 6 mps 756 mmHg 18%
03:00 +23°C° 0 mm 6 mps 756 mmHg 18%
04:00 +23°C° 0 mm 6 mps 756 mmHg 19%
05:00 +22°C° 0 mm 6 mps 756 mmHg 20%
06:00 +24°C° 0 mm 6 mps 756 mmHg 19%
07:00 +26°C° 0 mm 7 mps 757 mmHg 17%
08:00 +27°C° 0 mm 8 mps 758 mmHg 16%
09:00 +31°C° 0 mm 8 mps 758 mmHg 14%
10:00 +33°C° 0 mm 7 mps 758 mmHg 12%
11:00 +36°C° 0 mm 7 mps 758 mmHg 10%
12:00 +38°C° 0 mm 6 mps 757 mmHg 9%
13:00 +39°C° 0 mm 5 mps 756 mmHg 8%
14:00 +39°C° 0 mm 3 mps 755 mmHg 7%
15:00 +39°C° 0 mm 3 mps 754 mmHg 7%
16:00 +39°C° 0 mm 3 mps 754 mmHg 7%
17:00 +38°C° 0 mm 2 mps 754 mmHg 7%
18:00 +36°C° 0 mm 3 mps 755 mmHg 8%
19:00 +34°C° 0 mm 3 mps 755 mmHg 9%
20:00 +30°C° 0 mm 3 mps 756 mmHg 10%
21:00 +29°C° 0 mm 4 mps 756 mmHg 11%
22:00 +29°C° 0 mm 4 mps 756 mmHg 11%
23:00 +28°C° 0 mm 5 mps 756 mmHg 11%
Show more

We Need Your Consent

Meteoprog and our Service Providers may store and access personal data such as cookies, device identifiers or other similar technologies on your device and process such data to personalise content and ads, as well as provide social media features and to analyse the traffic.

  • Store and/or access information on your device

    Cookies, device identifiers or other information can be stored or accessed on your device for the purposes indicated above.

  • Personalised ads and content, ad and content measurement, audience insights, and products development

    Ads and content can be personalised based on a profile. More data can be added to better personalise ads and content. Ad and content performance can be measured. Insights about the audience who saw the ads and content can be derived. Such data can be used to develop or improve user’s experience, systems and software.

By clicking ‘I Agree’ you will allow the use of indicated cookies, device identifiers, web beacons or other similar technologies. Your settings can be changed in the browser on your device.

For certain purposes, legitimate interests may be relied on, rather than consent. You can read more about this in our Privacy and Cookie Policy.